Location: Appeville
(49.3218°N, 1.3427°W)
Time: 11:25:12
(UTC+00:00)

Okean O Rocket - Pass Details

Date: 08 December 2019
Orbit: 624 x 644 km, 98.2° (Epoch: 19 January)

Event Time Altitude Azimuth Distance (km) Brightness Sun altitude
Rises 06:45:58 0° 6° (N) 2,928 4.8 -9.5°
Reaches altitude 10° 06:48:22 10° 355° (N) 2,019 3.9 -9.2°
Maximum altitude 06:52:10 30° 295° (WNW) 1,146 2.4 -8.6°
Drops below altitude 10° 06:55:59 10° 235° (SW) 2,016 3.9 -8.0°
Sets 06:58:22 0° 224° (SW) 2,923 4.8 -7.7°
